Location: Ferma
(41.9500°N, 44.5167°E)
Time: 13:38:44
(UTC+00:00)

MOS 1-B - Pass Details

Date: 24 October 2021
Orbit: 905 x 913 km, 99.4° (Epoch: 08 December)

Event Time Altitude Azimuth Distance (km) Brightness Sun altitude
Rises 14:29:40 0° 153° (SSE) 3,527 7.3 -5.0°
Reaches altitude 10° 14:32:05 10° 151° (SSE) 2,588 6.6 -5.4°
Maximum altitude 14:37:47 63° 71° (ENE) 1,010 4.4 -6.4°
Drops below altitude 10° 14:43:29 10° 352° (N) 2,599 6.7 -7.5°
Sets 14:45:55 0° 349° (N) 3,544 7.5 -7.9°
